Wind_Speed
36 36 34 33 36 39 41 40 38 36 34 34 29 24 26 26 21 18 21 28 31 30 32 34 36 37 35 34 33 31 30 29 29 28 27 27 26 24 23 22 21 19 17 16 16 16 16 15 15 14 14 13 12 12 11 10 8 6 5 5 5 6 5 4 3 2 9 13 16 17 16 15 15 15 18 20 21 22 19 18 19 18 18 20 20
33 33 32 33 35 37 39 39 37 36 34 36 33 25 25 32 30 23 21 23 28 31 32 33 35 36 35 34 33 31 30 30 29 29 28 27 27 26 24 22 22 20 18 18 18 17 17 16 15 15 14 14 13 13 12 11 10 8 8 7 6 5 5 5 4 2 7 13 16 17 15 15 15 16 18 20 23 24 20 18 20 20 18 19 20
32 34 32 34 38 38 38 36 36 36 35 36 38 33 29 30 32 31 27 24 26 30 32 33 34 35 34 33 32 31 30 30 30 30 29 28 27 26 25 23 23 21 20 19 19 19 19 17 16 16 16 16 14 13 13 12 11 11 10 9 7 6 5 5 4 3 5 14 17 17 15 14 14 16 17 18 22 25 21 18 21 22 20 19 21
32 35 34 33 36 38 38 37 35 36 36 36 37 38 36 33 31 31 31 27 27 29 31 32 32 33 33 32 31 32 31 30 31 30 29 29 27 26 25 24 23 22 21 20 20 20 20 19 17 16 17 17 16 15 14 13 12 11 10 9 8 7 6 6 6 4 2 11 15 15 17 15 13 15 17 17 19 22 21 19 21 22 20 18 19
34 37 36 32 34 37 37 38 36 36 38 38 36 37 37 36 34 32 31 31 30 30 29 30 32 32 33 32 31 32 31 31 32 31 29 29 27 26 26 24 23 22 22 22 20 20 20 21 19 17 18 18 17 16 15 15 13 11 10 9 7 8 9 7 7 6 4 8 13 14 15 15 13 13 16 17 17 17 18 19 21 21 18 17 18
28 35 37 32 32 34 34 36 36 34 35 36 35 35 34 34 36 34 32 34 33 31 30 30 32 33 33 33 32 32 32 32 32 31 30 29 27 26 26 25 24 23 23 22 21 20 20 20 19 19 19 19 19 18 17 16 15 12 11 9 7 9 11 8 8 7 5 10 15 15 15 15 15 13 13 16 18 17 18 18 19 20 19 19 18
16 24 31 30 29 31 33 35 35 31 30 31 31 32 31 31 34 34 33 35 36 33 34 33 33 33 33 33 32 32 32 32 32 31 30 29 28 26 25 25 24 23 23 23 22 21 21 20 19 19 19 20 20 18 17 17 17 14 12 10 9 9 11 10 9 8 8 13 16 15 14 14 14 14 12 14 16 17 18 18 18 18 18 19 20
15 13 18 25 28 31 33 33 33 31 30 29 28 28 29 30 32 34 34 35 35 35 37 37 35 34 33 33 33 33 33 32 32 31 30 29 28 26 25 25 24 24 23 23 22 21 21 20 19 19 19 19 19 18 18 18 18 15 12 11 10 9 10 10 11 10 10 15 16 15 15 14 13 13 13 13 14 15 18 20 20 20 19 19 20
24 19 17 20 26 31 32 30 29 30 29 28 29 29 28 29 30 32 33 33 33 34 36 36 33 33 34 34 32 33 34 33 33 33 30 29 27 26 25 24 24 24 22 22 22 20 20 20 19 19 18 18 18 18 18 19 18 15 14 13 13 12 11 10 12 13 12 14 16 16 16 15 14 16 16 17 18 17 17 18 17 17 17 15 15
26 27 26 23 24 26 29 29 27 27 28 27 28 29 28 28 29 30 30 30 30 31 29 29 27 27 30 35 34 32 34 33 32 32 31 29 28 27 26 24 25 24 22 22 21 20 19 19 19 20 19 18 18 18 18 19 17 16 15 15 14 15 14 12 12 14 13 13 17 17 16 14 16 19 20 20 20 18 17 15 11 11 14 13 11
25 24 24 23 24 25 26 26 25 25 27 26 25 27 28 29 30 30 27 23 24 25 24 25 28 27 26 30 34 32 33 32 31 31 30 29 28 27 26 24 25 25 22 21 20 19 19 19 20 20 19 18 19 18 18 19 18 17 16 15 14 15 15 14 12 13 13 13 16 19 17 16 18 20 20 19 18 17 17 17 13 12 15 14 10
24 22 22 22 24 24 23 24 25 24 25 25 24 24 27 29 29 28 24 22 25 26 24 27 31 29 27 26 31 31 31 31 30 30 29 27 27 27 26 23 23 24 23 21 20 20 18 17 18 20 18 18 19 19 19 19 18 17 14 12 14 14 15 15 12 11 12 12 14 19 18 16 20 22 21 19 19 18 18 19 17 16 17 17 14
18 19 22 22 21 21 18 19 22 22 22 23 23 23 25 27 28 26 22 23 28 29 27 29 30 30 30 28 28 29 29 29 29 29 28 27 26 27 26 24 23 23 22 21 20 20 19 17 18 19 18 18 19 19 19 19 17 16 13 11 14 14 14 15 12 9 8 7 9 16 17 16 21 23 22 21 20 20 19 20 20 19 19 20 19
19 17 19 20 21 24 24 20 19 18 19 20 21 23 25 24 25 24 22 23 26 26 28 29 29 30 33 29 27 26 27 28 28 28 28 28 27 25 24 23 23 22 22 21 21 21 20 18 19 20 19 19 20 20 19 19 17 15 12 11 13 13 13 14 13 10 8 4 4 9 11 13 18 22 21 21 21 21 21 22 22 20 20 19 17
19 17 17 18 18 23 29 26 20 17 18 20 20 22 24 22 21 21 21 23 24 24 26 26 28 33 33 28 25 24 25 27 27 27 28 29 29 27 24 22 22 21 21 22 22 22 21 19 20 22 21 20 20 20 19 19 17 14 11 10 11 12 12 13 13 12 9 5 3 6 8 9 14 19 20 20 20 19 19 19 18 17 17 15 10
19 19 20 22 22 24 28 26 21 19 21 22 21 20 21 21 19 19 19 21 23 24 24 25 32 37 31 24 23 24 25 26 26 26 28 30 31 29 26 22 21 20 19 19 20 21 21 20 21 23 23 21 20 19 19 20 18 14 13 12 12 12 11 11 12 12 10 7 6 7 8 10 13 17 19 18 17 16 15 15 15 15 16 14 10
22 23 24 25 26 26 25 23 21 21 23 26 25 22 22 21 20 19 19 18 18 20 24 30 35 34 28 23 23 23 25 27 27 27 29 30 31 30 27 23 20 18 18 18 18 19 19 19 20 22 22 22 20 18 19 20 17 14 14 14 14 13 11 9 10 11 11 9 8 8 8 9 12 15 16 16 15 14 14 17 19 19 18 15 11
19 23 24 24 23 23 23 22 22 21 24 28 28 26 25 25 23 21 20 17 15 19 28 34 32 26 23 23 22 20 23 28 28 28 29 30 30 30 27 24 20 19 18 18 19 20 19 18 20 22 22 22 20 19 20 19 17 15 15 15 15 14 12 10 9 10 10 10 9 9 8 8 10 12 13 14 15 16 14 15 19 22 20 16 14
14 16 21 23 21 22 22 21 20 21 23 27 29 30 28 26 24 23 21 19 19 25 32 31 25 20 20 22 22 19 21 25 28 29 30 30 31 30 27 24 21 20 20 20 20 22 21 20 22 23 23 22 20 20 22 19 16 16 17 17 16 15 13 11 10 10 11 10 9 9 8 8 9 10 11 12 14 15 12 10 17 22 20 19 20
18 18 19 21 20 20 20 19 20 20 21 24 28 29 27 24 24 25 23 22 22 28 30 23 19 19 19 21 23 22 21 24 28 30 30 31 32 31 27 25 22 21 21 21 20 20 20 21 24 25 23 22 21 20 22 21 16 16 17 17 17 16 13 12 12 12 11 11 10 9 9 9 9 9 11 11 12 12 10 9 14 19 19 22 23
21 18 18 20 19 19 18 18 20 21 21 24 25 25 25 24 23 23 24 25 26 29 26 20 18 19 20 21 23 23 23 25 28 30 30 31 32 32 28 25 23 22 21 21 20 19 19 20 24 25 23 24 22 21 23 22 17 16 18 18 18 17 14 13 14 13 12 12 12 11 11 12 11 11 10 11 11 11 11 10 12 15 17 19 20
18 13 17 18 17 19 20 20 22 22 20 21 23 23 24 22 20 19 21 24 26 25 22 20 19 19 20 22 23 24 24 25 27 31 32 31 32 33 29 25 22 21 21 20 19 19 21 21 23 24 23 25 24 20 22 24 19 17 17 15 15 17 16 15 17 15 14 14 14 14 14 14 14 12 11 11 12 12 12 12 13 15 15 15 15
15 13 20 21 19 19 21 23 25 25 22 22 23 24 24 21 17 16 18 22 25 22 19 20 19 18 20 22 23 24 25 26 26 30 32 32 31 32 30 26 23 22 20 19 20 21 22 22 23 23 23 25 24 21 23 24 21 18 17 14 15 18 19 19 19 18 16 16 16 16 16 16 15 13 12 14 15 15 14 14 13 13 13 11 10
9 7 15 21 22 21 21 22 25 26 25 25 23 22 23 24 21 17 18 21 23 22 19 19 15 11 12 13 13 16 21 25 27 28 31 32 30 31 32 28 24 23 20 17 19 22 22 22 23 23 23 24 23 24 25 24 19 16 15 15 18 21 21 22 21 19 18 19 18 18 18 17 16 15 15 16 17 16 15 15 14 13 14 15 15
4 5 7 16 21 25 23 22 24 23 23 26 25 22 23 24 24 24 23 22 21 20 19 16 12 8 9 9 10 14 17 23 27 28 30 31 28 29 34 31 24 22 20 17 17 20 22 23 24 23 23 23 23 25 25 21 16 15 17 20 22 22 21 22 22 20 20 20 19 19 19 17 16 16 17 18 18 16 16 16 15 16 17 19 20
3 8 10 17 17 25 23 20 23 23 21 23 25 24 22 21 22 26 25 21 19 18 16 14 11 10 10 10 12 17 18 21 27 28 30 32 30 30 35 34 25 19 18 17 17 17 20 23 24 24 24 24 25 27 25 20 16 17 20 22 22 21 20 20 20 19 19 20 20 20 19 17 16 17 19 19 17 15 16 17 18 19 20 21 21
7 10 13 15 11 16 21 20 20 21 20 21 21 22 24 26 26 26 25 21 20 18 16 15 13 12 11 11 13 18 19 20 25 28 30 31 31 30 34 34 28 20 17 17 17 18 20 24 25 25 25 25 26 26 23 20 19 20 21 21 21 19 17 17 18 18 19 20 20 20 19 17 18 20 20 19 18 18 18 20 21 21 20 20 19
9 14 16 13 11 11 15 17 17 18 19 19 18 17 22 26 26 26 27 26 25 22 20 19 17 15 14 13 14 20 20 21 25 29 31 31 31 31 32 32 29 23 19 19 20 22 24 26 26 26 27 26 25 23 22 21 21 21 20 20 19 16 15 17 18 18 20 21 20 20 21 21 23 23 20 19 20 21 20 20 21 21 20 20 18
7 11 15 14 15 16 15 14 15 18 20 20 17 14 17 21 22 22 25 28 27 24 21 20 20 19 18 18 21 25 24 23 25 28 29 29 30 31 32 34 32 27 22 23 26 28 30 30 29 28 28 27 25 23 22 21 21 20 20 20 17 15 16 19 19 19 23 24 22 22 25 25 24 22 20 19 22 22 20 20 21 21 20 20 19
7 11 12 12 15 18 18 17 16 18 20 20 18 15 15 17 20 20 22 25 26 25 22 22 24 27 29 31 35 36 30 24 22 23 24 25 28 31 33 34 33 29 26 26 30 34 34 33 31 30 29 27 25 23 22 21 20 20 21 20 17 16 18 20 19 20 23 24 23 25 27 25 23 21 20 20 22 21 19 19 20 20 21 21 21
4 12 15 16 20 21 21 19 18 20 19 18 18 17 14 13 14 16 19 22 23 23 24 24 25 28 32 34 35 35 30 24 21 21 21 22 26 30 33 34 33 31 30 30 33 35 33 30 28 27 27 25 24 23 23 22 21 21 21 20 19 19 20 20 20 21 23 23 25 27 26 23 22 21 21 22 22 20 19 19 19 19 20 19 20
8 12 12 15 19 18 21 21 20 21 21 19 18 17 15 12 11 11 14 17 19 19 21 23 22 24 28 29 28 27 26 23 21 21 20 21 25 30 34 35 33 31 32 33 35 33 31 30 28 26 25 24 23 23 23 22 22 23 23 21 20 21 22 21 21 23 24 25 28 28 24 22 22 22 22 22 21 19 20 20 18 19 18 14 14
14 16 16 18 21 18 17 20 19 19 18 17 16 15 14 13 12 11 11 12 14 16 17 19 19 20 21 22 23 23 23 21 19 19 20 21 25 31 35 36 35 35 36 37 35 31 28 28 27 26 26 24 23 24 24 23 23 24 23 22 23 23 22 21 22 24 25 27 29 28 24 23 24 23 22 22 21 20 20 19 18 18 15 10 10
15 16 16 19 18 18 19 17 14 15 15 16 16 15 13 11 11 14 13 10 10 12 13 15 17 17 16 16 17 20 22 21 19 19 21 23 27 33 36 36 35 36 37 37 34 29 27 26 26 26 26 25 24 25 25 23 24 24 22 23 24 24 23 22 23 25 27 28 28 28 26 24 23 22 22 22 21 20 21 20 19 16 13 10 10
11 13 14 15 16 15 15 16 12 9 10 12 13 12 11 9 11 14 15 12 11 12 13 14 15 16 16 15 15 17 19 19 18 20 22 25 30 35 36 36 35 33 32 32 31 28 27 27 27 27 27 26 26 27 26 25 24 24 23 24 25 25 25 25 25 26 27 27 28 28 26 22 21 22 24 22 19 19 21 20 17 14 12 14 14
12 11 12 12 9 7 9 13 13 11 8 9 10 11 11 12 13 15 15 14 13 13 14 15 15 15 16 16 16 16 16 17 19 23 25 30 35 38 38 36 34 32 31 30 28 26 25 26 27 27 28 27 27 27 27 25 24 24 25 26 26 26 26 27 27 26 26 26 27 28 25 22 21 24 26 22 17 16 19 18 14 10 10 14 15
15 15 15 15 14 11 9 10 12 12 10 8 9 11 14 15 15 16 16 15 15 15 15 17 17 16 16 16 17 18 18 18 22 25 27 32 38 40 38 36 35 33 31 29 27 25 23 25 27 27 28 28 27 27 27 25 24 25 26 27 27 27 27 29 29 28 28 27 28 28 25 23 23 25 26 22 17 15 17 17 12 9 9 10 10
15 17 17 17 15 12 10 10 10 10 11 9 9 11 13 14 15 16 17 17 18 18 18 19 19 18 19 19 20 21 21 22 24 26 30 36 39 37 34 34 36 35 31 28 27 25 22 23 26 28 29 28 27 28 29 27 26 26 27 27 27 27 28 30 31 30 30 29 29 28 27 25 25 27 26 23 19 16 16 14 10 10 12 10 7
16 17 17 16 14 11 10 10 10 9 9 10 12 13 13 14 15 15 15 17 18 18 18 20 20 19 21 23 23 23 24 27 28 29 33 37 36 32 30 31 33 33 30 27 27 27 24 24 26 28 29 29 28 29 30 29 27 27 27 27 27 27 29 32 32 31 31 30 29 29 28 27 27 28 25 21 18 17 16 13 10 10 12 11 8
16 16 16 15 14 12 10 10 10 9 9 10 11 13 14 15 15 13 12 14 15 15 16 18 18 20 23 27 29 30 31 32 32 33 35 35 31 27 28 29 29 30 29 26 26 28 27 25 26 28 29 29 29 30 31 29 27 27 26 27 28 29 31 33 33 31 31 31 30 30 30 28 28 27 24 20 18 17 17 14 11 10 9 9 8
14 14 14 13 12 10 9 8 7 7 8 8 7 7 8 11 13 12 11 12 13 13 15 17 16 17 22 27 30 29 29 29 30 31 32 30 26 24 26 26 26 28 29 27 26 28 28 27 26 27 28 28 27 27 27 26 25 25 25 25 28 30 32 33 33 31 31 31 30 30 30 29 27 26 24 21 19 19 18 16 13 11 11 10 11
13 13 12 11 10 8 8 9 8 6 4 4 5 4 3 5 8 10 13 16 17 16 15 15 14 14 17 21 21 18 17 20 24 25 23 21 20 20 22 21 21 22 23 23 22 23 24 25 25 24 24 24 23 23 23 23 23 24 24 26 29 31 32 32 32 31 31 30 30 31 31 29 26 26 24 21 19 20 20 18 14 14 14 13 13
15 13 12 11 10 10 10 9 8 6 5 4 3 3 3 3 6 9 12 16 21 23 21 18 16 16 16 16 15 12 9 11 15 18 19 20 21 21 21 21 20 19 19 18 18 19 21 23 23 22 22 21 21 21 21 21 22 24 26 28 30 31 31 32 31 31 30 30 29 30 30 27 26 26 25 22 20 20 20 18 16 15 16 15 14
19 17 15 15 14 14 14 13 12 11 11 9 7 5 2 1 4 6 7 8 12 18 20 19 19 21 22 21 19 19 19 18 17 16 17 18 19 21 21 21 21 20 19 17 17 18 19 20 21 21 20 20 20 20 18 18 21 24 26 28 30 31 31 31 31 32 32 31 30 30 30 27 26 26 25 23 21 20 19 18 18 16 16 16 16
23 21 20 20 19 18 17 16 16 15 15 16 15 13 9 7 4 2 3 3 5 10 14 16 17 19 21 22 23 25 27 26 23 21 19 18 18 19 20 19 19 18 17 17 17 17 17 18 21 22 21 21 20 19 19 20 22 24 25 27 29 30 30 31 31 32 33 33 31 31 31 28 27 27 26 25 23 21 20 19 18 17 16 17 17
25 24 23 22 22 21 21 21 20 20 19 20 20 19 17 15 12 8 5 6 9 13 17 18 17 17 17 20 23 26 28 28 27 25 22 20 19 19 18 17 17 17 17 18 19 20 19 19 20 21 22 21 20 19 21 22 21 21 22 25 26 27 28 29 29 31 33 32 31 31 30 28 27 27 27 25 23 21 20 20 19 17 16 17 18
27 25 24 23 23 23 23 24 24 23 23 23 23 24 24 22 18 13 9 9 14 18 20 22 22 21 20 20 22 25 28 29 29 27 25 21 19 18 18 18 17 17 17 18 19 19 18 17 17 19 21 22 20 18 18 17 15 16 19 22 23 24 25 26 27 29 31 30 29 28 27 27 27 27 26 25 24 21 20 20 20 18 16 16 17
27 26 25 25 24 24 24 24 24 24 25 27 27 27 27 26 24 20 16 15 17 21 22 24 24 24 24 23 22 23 25 27 27 27 26 23 19 18 18 17 18 18 18 18 18 18 17 17 16 17 19 20 19 17 16 15 14 14 17 19 22 23 23 23 24 26 28 27 26 25 25 26 27 26 25 26 24 21 20 20 21 19 17 16 17
27 26 26 26 26 25 26 26 26 25 25 25 26 27 28 28 27 25 22 21 21 23 24 25 25 24 24 23 21 21 21 22 22 22 22 21 19 18 17 17 17 17 17 17 16 16 15 15 15 16 17 18 18 16 16 16 16 16 17 19 21 21 21 22 24 26 28 27 25 24 24 25 25 25 25 25 23 21 20 21 20 19 17 16 16
29 29 28 27 27 25 25 26 25 24 23 22 22 24 28 30 30 28 25 24 24 25 26 26 26 25 24 23 22 22 22 21 20 18 17 17 18 18 18 18 17 17 17 17 17 16 15 14 14 14 15 15 15 14 14 15 17 18 18 19 19 20 20 21 23 26 27 25 23 23 24 24 24 24 24 23 21 22 22 21 20 19 18 17 16
29 30 30 30 30 29 28 27 26 24 24 24 23 24 26 29 30 30 27 25 24 24 25 26 26 26 25 24 23 23 22 21 20 19 18 16 15 15 17 18 18 17 17 17 17 17 16 15 14 13 13 15 15 15 15 16 17 17 18 19 19 19 18 19 21 23 24 23 23 24 24 23 23 25 25 22 21 22 22 21 20 20 19 17 17
Wind_Direction
186 189 190 191 192 193 197 199 200 204 208 212 215 218 219 215 216 225 214 198 195 195 191 188 187 186 188 191 193 193 193 194 194 192 187 185 187 189 188 192 195 196 203 211 212 213 213 211 210 210 209 208 206 202 198 192 186 180 180 177 165 166 172 195 231 129 126 142 146 150 159 163 165 174 180 187 189 182 184 197 199 193 192 195 197
184 187 188 186 187 189 194 199 200 204 208 212 217 222 219 210 205 215 231 220 203 197 194 192 189 187 188 189 190 192 192 192 193 192 188 184 184 187 189 190 193 195 202 210 210 209 212 213 210 210 209 206 205 202 196 189 185 185 184 180 178 181 179 190 237 235 133 139 146 152 162 167 167 170 182 192 188 183 190 198 194 194 197 197 198
186 188 188 184 184 185 187 191 196 200 205 210 215 219 220 216 207 204 215 229 221 205 197 195 191 187 187 187 187 189 190 191 193 192 189 185 183 185 188 190 193 196 200 209 212 208 208 212 213 210 206 206 207 203 197 190 188 189 186 183 179 180 185 186 222 263 141 142 152 158 162 170 173 172 182 193 189 184 191 194 188 190 195 199 203
192 186 185 182 182 184 184 185 189 193 199 206 211 214 217 217 215 210 206 214 227 221 205 197 194 189 186 186 186 187 189 190 191 192 189 187 185 184 187 191 195 197 201 209 214 208 205 208 212 211 205 203 206 205 199 192 192 193 187 186 187 184 187 188 202 246 180 148 157 162 165 171 174 170 174 185 187 186 190 188 183 187 194 199 206
192 184 181 179 177 183 185 185 187 191 197 202 205 209 212 211 212 214 207 204 217 228 218 201 195 192 187 186 186 187 188 189 190 191 190 188 187 186 188 192 196 199 202 210 215 212 207 207 208 210 205 201 202 203 198 192 193 199 191 189 197 188 182 179 186 217 226 158 153 157 162 164 164 169 175 180 182 183 185 185 182 184 189 193 205
192 184 179 175 174 181 186 187 188 192 198 204 205 206 209 210 209 210 210 204 207 222 228 210 196 194 190 187 188 187 187 189 189 190 190 188 188 188 189 193 197 200 203 210 216 214 211 208 206 208 205 200 200 201 198 192 192 197 191 190 198 180 171 173 180 199 201 160 152 153 159 160 160 168 180 184 183 180 180 183 186 189 188 188 199
195 187 178 174 175 181 185 188 191 194 199 206 209 208 208 209 207 206 208 208 204 212 226 220 202 196 192 188 188 187 186 188 188 189 189 189 189 189 190 194 197 200 204 210 215 214 213 211 208 207 207 203 201 200 197 192 191 194 189 188 195 176 164 172 186 196 180 157 154 157 160 163 166 172 180 185 188 189 185 183 187 194 195 193 198
193 197 178 171 175 182 185 186 188 191 197 204 208 209 207 205 207 206 205 207 205 208 222 223 206 195 194 190 187 187 187 187 187 188 189 189 189 190 191 196 198 200 205 210 213 214 213 213 211 210 210 207 205 203 197 190 189 191 185 186 193 184 171 177 188 199 183 159 157 163 165 166 171 173 174 177 185 195 196 192 193 198 199 198 201
186 198 190 173 174 185 189 187 184 186 190 196 199 203 204 203 207 210 206 204 204 207 223 230 213 196 192 190 188 186 186 187 188 187 187 187 188 190 194 198 198 199 205 209 212 214 212 212 213 212 213 211 207 203 196 191 191 189 184 189 192 186 184 184 187 199 193 164 159 167 170 170 173 171 172 182 191 197 199 197 197 199 194 185 191
181 188 188 180 178 184 189 187 184 185 188 192 195 198 203 205 209 215 214 211 207 206 222 235 222 209 198 187 185 186 185 187 190 188 187 187 187 191 196 200 199 200 205 207 210 214 213 212 212 210 213 213 208 203 195 190 192 187 183 189 189 184 188 192 193 201 198 173 166 173 176 178 182 181 182 190 196 196 197 198 195 192 186 172 171
184 185 184 183 182 182 184 184 183 185 187 191 194 197 204 207 209 216 220 221 216 210 222 229 217 221 220 193 181 184 184 185 189 188 187 187 187 190 195 198 200 201 204 206 209 212 212 211 207 205 209 210 204 201 196 191 190 185 182 187 187 184 189 195 200 207 206 192 179 178 182 184 188 191 190 190 192 193 196 196 192 189 188 185 183
183 181 185 188 186 182 178 177 179 183 184 186 189 194 203 204 206 214 219 221 220 213 221 224 207 214 232 209 183 182 185 186 189 188 187 187 189 192 195 198 198 200 204 207 207 210 210 204 199 198 203 206 201 197 194 191 192 192 193 198 194 190 191 195 201 205 209 209 190 184 191 191 185 189 192 190 190 193 194 191 190 193 195 200 205
189 183 187 186 188 188 182 179 181 180 177 180 184 190 198 200 205 212 210 211 215 212 216 218 201 205 227 216 188 184 186 187 188 187 188 190 189 192 196 199 199 200 206 207 206 210 208 195 187 188 193 198 199 197 194 193 195 197 204 211 204 197 193 195 200 194 194 207 193 190 201 199 187 189 193 192 188 188 188 188 191 196 200 205 213
189 192 190 184 187 188 186 189 189 180 173 175 180 187 193 195 201 209 206 201 206 209 213 211 199 207 221 211 189 186 186 185 187 188 191 193 191 191 193 196 200 202 206 208 209 211 206 194 184 182 185 190 192 194 195 194 195 198 203 206 203 200 198 196 197 190 182 187 182 185 194 194 189 190 192 193 191 188 188 191 194 196 198 203 212
176 184 192 194 199 193 186 187 186 181 180 178 178 184 191 194 197 204 206 202 201 207 213 210 206 216 219 202 186 188 187 186 189 191 194 197 197 196 194 194 199 203 206 209 210 208 206 198 187 181 183 186 187 192 195 194 193 195 191 187 191 198 200 198 197 194 190 189 176 164 159 161 174 182 187 191 192 192 194 196 196 192 185 180 184
176 179 189 195 203 201 193 189 182 181 187 188 185 186 189 194 196 198 202 206 206 206 210 215 217 218 212 194 187 191 190 190 191 190 194 198 199 199 197 194 198 204 207 210 207 205 205 199 187 183 184 183 185 194 198 192 191 189 180 177 185 193 195 197 199 199 195 188 176 162 150 145 157 170 178 184 186 190 191 187 184 178 162 147 140
177 181 190 192 193 194 192 189 183 183 190 192 193 194 196 198 197 194 195 203 209 207 209 219 221 212 201 194 192 191 191 193 194 194 195 198 198 198 198 196 198 204 208 210 206 203 205 201 189 184 185 186 189 196 197 191 187 182 175 175 180 184 186 196 204 203 201 201 193 178 162 153 155 160 166 169 171 175 175 173 173 168 155 144 140
182 183 189 190 187 185 185 184 179 180 188 194 195 196 198 200 198 195 194 195 205 215 218 222 219 204 195 199 199 195 194 194 196 200 201 201 200 199 199 198 199 200 203 207 204 201 205 205 194 185 185 190 194 196 194 188 181 177 176 173 174 177 182 192 200 197 197 203 205 198 187 177 173 170 168 165 162 164 167 171 175 171 160 153 150
202 193 186 186 187 184 183 182 178 179 186 193 195 194 193 197 198 198 195 186 195 216 221 217 209 198 198 204 204 205 202 196 197 202 204 204 204 201 199 200 199 197 199 203 204 204 207 208 200 190 186 190 196 196 191 183 177 181 181 172 172 180 186 192 194 189 187 189 191 191 189 189 189 186 185 182 175 175 176 170 176 178 167 156 151
209 213 196 184 179 174 176 180 182 186 190 191 192 193 193 195 196 197 192 180 195 221 223 209 200 201 204 206 207 210 209 201 200 202 203 204 205 202 200 201 200 197 197 201 202 202 203 202 196 191 188 190 194 194 188 180 177 186 187 180 180 184 186 190 189 182 178 174 169 170 169 169 171 173 180 185 180 178 177 164 171 177 167 158 158
212 211 187 176 171 168 176 186 185 189 197 195 190 191 193 194 194 198 191 182 197 219 217 202 201 205 206 209 209 210 213 208 203 203 203 204 205 202 199 201 202 199 197 202 201 192 186 186 186 187 190 191 191 190 187 182 179 187 191 190 192 192 186 180 175 168 164 158 153 151 149 145 146 150 160 168 165 166 168 161 159 163 160 161 162
227 200 168 176 186 180 181 188 186 185 190 191 187 188 193 195 196 203 203 197 203 210 204 200 208 208 208 212 210 211 216 212 205 203 203 202 204 204 200 199 203 200 198 202 198 184 179 183 183 183 188 189 187 185 184 186 190 195 193 193 197 194 182 167 162 161 161 157 153 151 148 144 145 148 149 149 147 149 152 148 146 151 156 164 171
230 184 164 181 195 186 179 184 189 189 182 178 183 187 192 194 194 203 215 210 202 196 192 199 209 211 211 212 209 209 212 210 206 205 202 201 203 203 200 199 203 203 200 198 192 181 180 185 184 179 181 183 183 181 183 189 199 204 202 198 191 181 169 159 160 164 166 168 167 166 161 155 151 151 148 142 138 139 140 138 138 142 143 145 157
229 156 163 187 190 181 178 181 187 193 190 184 182 182 185 191 193 205 226 217 196 186 190 197 204 215 223 225 225 219 209 204 205 205 202 202 202 201 201 200 201 204 202 194 187 182 181 185 184 180 178 178 180 182 185 189 198 202 197 185 172 167 162 158 162 171 179 181 177 167 161 158 158 159 155 146 141 139 137 132 130 131 126 121 121
220 131 196 219 194 174 175 178 179 186 191 190 189 186 185 188 189 200 220 222 202 191 194 198 200 208 215 227 249 247 221 202 199 201 202 204 202 201 202 201 198 199 198 189 183 183 183 184 181 179 179 178 178 181 183 186 192 188 179 173 168 166 163 162 168 181 185 178 168 159 155 158 164 167 162 153 148 145 142 135 129 129 128 125 121
151 150 214 241 206 173 170 176 179 181 182 185 190 192 190 191 194 198 205 211 207 199 195 194 195 199 197 199 227 243 230 204 198 199 200 202 202 201 202 202 197 190 186 183 181 178 178 179 178 177 179 179 179 180 179 180 182 177 173 173 171 166 165 171 180 182 172 161 159 159 158 160 165 166 162 156 152 150 148 140 132 130 131 130 125
120 162 216 257 245 181 168 167 175 180 180 182 185 186 188 194 198 195 192 195 200 201 198 192 188 194 198 197 219 236 226 203 199 199 196 198 202 202 203 203 199 189 182 179 176 172 171 174 174 174 173 173 176 179 177 175 176 174 173 174 173 170 174 182 183 176 166 163 163 163 161 161 162 160 157 154 152 150 147 142 135 133 134 132 126
138 165 198 238 264 223 181 165 168 175 181 186 187 188 193 196 195 192 193 198 200 198 197 194 191 196 199 198 217 231 221 201 200 201 196 196 200 201 201 202 200 194 184 174 168 166 165 165 164 164 165 166 169 172 173 173 175 175 176 177 179 182 185 182 177 173 172 172 167 162 161 160 159 156 153 154 155 151 147 145 141 140 140 135 128
184 176 190 208 229 224 201 185 182 184 189 193 196 203 207 203 199 199 204 210 212 208 202 198 199 207 211 208 214 221 217 206 204 205 201 200 201 200 199 199 197 191 183 176 168 160 156 157 160 161 163 164 165 168 170 172 176 180 181 181 183 184 180 176 173 170 170 170 166 163 162 159 157 156 156 159 161 160 159 157 153 151 153 148 143
210 203 207 222 232 221 205 202 202 198 199 199 199 204 206 201 200 199 200 207 214 215 211 206 204 207 209 210 212 216 216 212 206 203 203 206 208 206 201 196 192 183 177 176 170 159 155 158 162 163 163 164 166 169 171 173 177 182 182 181 182 181 176 176 176 171 169 170 170 167 164 161 161 163 165 169 173 174 174 170 165 166 169 164 159
246 221 218 231 238 222 205 204 204 200 200 201 197 194 190 191 197 195 192 198 205 208 209 210 208 205 204 206 210 213 216 215 207 200 201 207 211 206 197 190 186 181 176 171 163 157 155 157 160 163 165 167 170 173 175 176 179 183 183 182 184 184 179 178 181 178 174 172 171 168 165 165 167 169 171 175 180 181 177 172 174 183 186 183 179
311 273 257 263 263 236 206 202 204 203 200 195 191 189 181 176 186 193 195 200 203 205 210 213 214 212 210 210 213 210 205 204 202 200 204 210 208 199 190 185 182 179 175 169 162 158 159 159 161 166 169 171 175 176 178 181 183 184 187 187 184 182 179 178 181 181 177 172 169 167 167 171 173 173 177 182 183 178 172 172 184 197 198 190 179
329 304 290 295 300 284 241 215 204 200 198 189 187 192 189 183 184 185 189 199 202 203 208 212 213 212 211 215 219 212 201 194 192 195 206 211 203 192 188 186 181 174 170 165 160 160 163 163 165 170 173 175 179 179 183 188 187 187 193 191 181 177 178 179 179 180 177 173 171 170 171 175 176 178 184 187 181 172 170 178 193 205 204 175 136
334 317 291 272 270 273 270 253 219 200 198 190 185 190 195 198 192 181 176 183 193 197 203 207 209 209 207 209 212 207 201 195 191 196 205 205 197 191 186 180 175 170 168 165 162 162 166 168 170 174 176 178 181 182 187 191 188 189 193 187 176 174 178 180 179 177 175 174 175 175 174 176 183 189 187 180 174 172 178 188 196 203 199 168 139
325 316 297 267 242 236 260 271 256 224 201 188 183 187 196 209 208 193 185 183 184 191 200 204 206 208 205 201 198 199 201 201 200 204 204 197 191 186 178 168 163 164 167 169 168 168 170 172 174 175 177 180 183 184 188 190 188 188 186 177 171 173 177 179 177 176 176 178 179 179 179 182 190 191 182 173 171 173 179 191 202 205 187 163 159
336 326 321 311 293 259 253 260 257 245 219 195 190 193 202 212 211 200 195 191 186 188 196 202 207 211 211 206 201 199 203 207 205 203 200 193 187 181 172 165 164 166 169 172 175 174 174 175 176 176 179 182 183 183 186 188 187 185 183 178 175 176 177 177 177 177 179 181 182 183 185 186 187 183 177 174 173 172 180 196 212 209 175 155 158
350 345 340 333 325 312 288 262 247 237 225 215 211 207 209 215 210 198 194 195 195 196 197 197 199 203 207 208 204 200 201 206 205 200 197 193 188 182 175 170 168 169 171 174 177 178 177 178 179 178 179 181 181 181 184 186 184 183 183 182 182 181 181 180 181 181 182 182 182 185 187 185 182 179 175 174 173 176 189 204 208 191 169 152 149
351 348 341 332 323 310 295 282 267 243 228 231 238 230 224 222 210 197 193 194 194 195 195 192 191 192 194 196 196 195 195 193 191 190 189 187 185 182 178 174 171 170 171 173 176 176 173 173 178 180 180 180 181 181 182 183 182 182 183 181 182 185 186 184 183 184 184 182 183 186 187 184 181 178 175 176 181 186 194 200 191 176 176 171 158
349 348 344 340 334 321 302 295 296 281 251 238 237 238 239 231 212 198 194 192 190 190 190 189 188 191 192 191 188 186 183 180 178 180 181 182 182 182 179 175 172 171 170 169 170 171 168 166 171 175 177 178 179 180 181 182 182 182 183 182 183 186 187 185 182 183 184 184 185 187 187 184 181 178 177 181 186 187 188 189 179 170 174 178 173
346 348 349 348 346 337 317 298 290 287 279 260 240 235 236 227 212 201 192 186 185 188 191 192 192 193 194 193 189 184 180 178 179 179 178 180 182 180 176 174 172 171 170 166 165 166 165 163 165 170 172 174 176 178 181 183 184 184 186 188 188 189 188 186 184 185 187 187 187 187 186 185 182 182 184 187 187 187 185 182 178 177 185 192 187
347 349 353 354 352 347 341 333 315 296 289 284 273 257 236 216 205 200 191 187 190 194 194 194 196 200 200 197 192 187 183 181 179 177 174 174 174 172 172 173 174 174 174 171 166 165 163 161 163 169 174 177 178 179 180 183 186 188 190 192 192 191 188 186 186 188 188 188 188 186 185 183 183 185 189 189 187 187 183 175 170 174 181 187 190
357 358 2 5 3 357 1 5 358 342 327 323 325 318 267 210 202 201 196 192 191 191 187 184 187 195 198 194 190 188 187 182 176 169 162 157 155 158 163 167 170 174 176 173 167 166 166 165 166 173 181 184 187 189 189 190 191 192 193 193 191 189 187 187 189 189 188 188 189 187 184 184 186 187 187 185 183 181 177 172 172 175 176 181 190
16 16 20 26 28 27 31 33 28 22 28 35 16 331 296 234 206 210 210 199 188 182 177 174 172 170 168 166 165 162 156 155 153 148 140 136 137 143 151 156 161 168 174 174 175 179 180 177 176 181 184 186 188 190 192 194 192 189 189 190 190 189 188 188 189 189 188 187 188 187 186 187 187 185 182 180 178 176 175 177 182 184 183 187 193
30 29 31 34 37 39 45 52 55 52 52 59 67 62 28 311 202 205 218 214 190 175 165 159 155 149 143 140 137 132 126 120 118 120 124 126 129 134 141 146 151 156 161 169 178 183 181 176 174 175 175 177 180 183 184 186 187 187 189 190 190 190 190 190 191 190 188 185 184 184 185 186 185 183 183 182 179 175 176 183 190 190 186 187 187
35 35 36 37 39 40 44 51 58 61 62 62 63 65 63 56 59 107 157 167 148 134 130 133 137 138 137 135 132 130 131 131 130 131 133 131 126 126 129 133 140 147 155 164 170 170 165 161 162 162 163 167 174 178 179 181 184 189 194 196 195 193 193 195 195 191 187 184 183 182 183 183 182 183 184 185 182 180 181 186 191 191 186 183 182
36 37 38 40 42 44 47 50 53 57 60 62 62 63 63 61 55 55 80 116 116 108 105 108 113 117 121 124 126 126 127 128 127 128 130 128 123 123 126 129 132 140 148 156 160 158 154 153 156 159 162 166 169 170 173 179 187 193 198 201 201 199 197 197 195 190 187 187 187 186 185 186 186 186 186 184 181 182 186 189 191 189 184 181 181
37 37 38 40 42 44 48 52 55 56 56 56 58 59 59 57 53 46 51 77 91 92 91 91 93 94 95 100 106 111 114 117 118 119 121 123 127 134 141 141 138 137 139 142 147 148 149 152 155 157 160 166 167 164 164 170 180 192 198 200 198 195 193 194 193 190 189 190 192 192 191 188 186 186 187 185 182 185 188 187 187 187 184 180 180
39 38 39 41 42 42 44 47 51 55 56 55 54 55 56 55 51 43 38 48 66 77 80 81 83 85 87 88 89 92 98 104 109 113 115 117 121 131 141 145 145 145 144 144 143 142 144 149 153 152 153 159 165 166 166 168 172 181 188 190 188 186 186 186 186 185 186 189 192 193 191 186 182 183 186 185 185 187 185 181 181 183 182 178 178
44 42 43 44 45 46 47 47 46 47 52 56 58 59 58 56 52 45 37 37 48 61 70 75 77 80 82 82 82 84 87 92 98 104 109 112 115 121 132 141 146 148 151 151 149 148 148 152 154 154 153 155 157 159 164 168 170 171 174 177 179 181 182 182 181 181 182 185 187 187 185 184 183 183 182 182 184 184 181 177 179 181 180 177 179
47 46 45 47 47 49 52 54 54 51 51 53 58 63 63 60 54 47 39 35 39 50 61 70 75 78 79 80 83 87 89 91 94 97 100 106 112 117 124 132 137 141 145 146 147 150 155 158 160 162 163 160 155 152 156 163 169 171 172 173 176 180 183 184 184 182 181 181 181 180 180 181 181 178 177 178 181 182 180 178 179 181 180 180 182
48 47 45 46 47 48 49 51 52 53 54 52 51 55 62 65 63 57 48 39 37 43 52 61 68 73 76 79 83 87 90 93 94 94 94 97 105 112 119 125 129 131 135 139 142 144 145 147 149 155 160 161 160 160 163 168 171 173 173 174 175 178 179 179 177 175 174 173 173 175 178 179 177 175 176 178 179 179 179 179 180 181 182 183 186
Height
691 694 697 700 704 707 710 714 717 721 723 725 727 730 735 738 741 744 745 745 746 748 748 748 749 751 754 758 761 764 766 768 771 772 772 773 775 778 780 782 784 786 788 790 792 793 794 795 796 797 798 799 800 801 802 802 804 805 806 806 807 808 809 809 810 812 812 813 814 815 817 818 820 822 824 825 827 829 831 832 833 834 836 837 838
688 691 693 697 701 703 706 711 715 718 721 722 725 729 734 736 738 742 747 748 747 746 746 747 747 749 751 754 758 761 763 765 768 770 770 771 773 776 778 780 781 783 786 788 790 791 792 793 794 795 796 797 798 799 800 801 802 803 804 805 806 807 808 809 809 810 812 813 813 815 817 818 819 821 823 824 825 827 829 830 831 833 835 836 837
686 688 691 694 697 700 704 708 711 715 718 720 722 726 731 735 735 736 741 747 749 747 746 746 746 747 749 752 754 757 760 763 765 767 768 769 771 773 775 777 779 781 783 785 787 789 790 791 792 793 794 796 797 798 799 799 800 801 802 804 805 806 807 808 808 809 811 812 813 814 816 818 818 819 822 824 825 826 827 828 830 832 833 835 836
685 686 688 691 694 697 701 704 707 711 714 717 720 723 727 731 734 734 736 742 747 749 746 745 745 746 747 749 751 754 757 759 763 765 766 767 769 770 772 774 776 778 780 783 785 786 787 789 791 792 793 794 795 796 797 798 799 800 801 802 803 804 806 807 808 809 810 811 813 813 815 817 818 818 820 823 825 826 827 828 829 830 832 833 834
682 682 685 689 692 695 698 701 705 708 711 714 717 721 723 726 729 732 733 736 742 748 748 745 744 744 744 746 748 751 753 757 760 762 764 765 766 768 769 771 773 775 778 780 782 784 785 786 788 790 791 791 793 794 795 796 797 799 800 801 802 803 804 805 807 808 809 810 812 813 814 816 818 819 820 821 824 826 827 828 829 830 831 832 833
680 679 682 686 689 692 695 698 702 706 709 711 713 717 721 723 726 729 732 733 736 744 748 745 742 742 742 743 745 748 751 754 757 759 761 763 764 765 767 769 771 773 776 778 780 781 782 784 786 787 788 789 790 792 793 795 796 797 798 799 801 802 803 804 806 806 808 809 810 813 814 816 817 819 819 820 822 824 826 828 829 830 831 832 832
680 679 680 684 687 690 693 696 700 703 706 709 712 715 718 720 722 725 729 731 733 739 745 745 741 740 739 740 742 745 748 751 754 757 759 760 761 763 764 767 769 771 774 775 777 779 780 781 783 785 786 787 788 790 791 793 794 796 797 798 799 800 801 803 805 806 807 808 810 812 814 815 816 818 819 820 822 823 825 826 828 829 831 831 831
682 682 682 683 685 687 690 694 697 700 702 705 709 713 716 718 720 723 726 728 729 733 741 743 739 737 737 737 739 742 745 748 751 753 756 757 758 760 762 765 767 769 772 773 775 776 778 779 781 783 784 785 786 788 789 791 793 794 795 796 798 799 800 801 804 805 806 807 809 810 812 814 815 817 818 819 821 822 823 824 825 827 829 830 830
680 684 684 684 683 685 688 692 696 699 702 704 706 710 713 716 719 722 723 724 726 730 737 741 737 733 733 734 736 739 741 745 747 749 752 753 755 758 760 763 765 767 769 771 773 774 776 777 779 780 782 784 785 786 787 789 791 792 793 795 796 797 799 800 802 804 805 805 807 809 810 812 813 815 816 816 817 819 821 823 824 825 827 828 829
678 681 683 683 682 683 685 689 694 698 701 703 704 706 710 713 717 720 721 721 722 726 735 740 737 734 732 731 733 736 738 741 744 745 747 749 752 755 758 761 763 765 767 769 771 772 774 775 776 778 780 781 783 784 786 787 789 790 791 793 794 795 797 798 800 802 803 804 805 807 808 810 811 812 812 813 815 817 819 821 823 824 826 828 829
674 678 680 681 682 682 683 686 690 695 698 701 702 703 706 710 714 717 718 719 721 724 732 738 736 735 734 730 729 732 735 738 741 742 744 747 749 753 756 759 761 763 765 767 768 770 772 773 773 775 778 779 781 783 784 786 787 789 790 792 793 794 795 796 798 800 801 802 803 804 805 807 808 810 811 812 814 816 817 819 821 823 825 826 828
669 674 678 681 682 682 682 684 687 691 694 697 699 700 703 706 711 715 716 718 722 725 729 733 732 733 736 733 728 729 732 735 737 739 741 744 747 751 754 757 759 761 763 764 766 768 770 770 771 773 775 777 779 781 782 784 786 787 789 791 792 793 794 795 796 798 799 800 801 802 803 804 805 807 809 810 812 814 815 817 819 821 823 824 825
670 673 676 680 683 684 685 686 688 690 692 695 697 699 702 705 708 712 714 718 723 724 727 730 728 730 736 735 729 728 730 732 734 736 739 742 746 749 752 755 757 759 761 762 764 766 767 768 769 772 774 776 778 779 781 783 784 786 788 790 791 792 793 794 795 796 798 799 799 799 800 801 802 804 806 808 810 811 813 815 816 818 820 822 823
672 673 675 679 682 684 686 689 691 691 691 694 697 699 703 706 708 711 714 718 721 723 726 727 726 730 735 733 728 728 728 729 731 734 737 741 744 748 751 753 755 757 758 760 762 764 765 766 767 769 772 774 776 778 780 781 783 785 787 789 790 791 792 792 793 795 796 797 797 798 799 799 799 802 804 806 807 809 810 811 813 815 817 819 822
672 674 675 677 681 684 685 687 690 690 691 694 698 701 703 706 708 710 713 716 718 720 722 723 726 731 733 728 726 726 726 727 730 732 735 739 743 746 749 751 753 755 756 758 759 761 763 764 765 767 770 773 775 776 778 780 782 784 786 788 789 790 790 791 792 793 795 796 797 797 798 798 799 800 803 804 806 807 808 809 812 814 816 818 821
673 676 675 675 680 683 684 685 687 688 690 693 696 699 702 704 706 709 711 714 716 717 719 723 728 730 728 724 724 725 725 726 729 731 734 738 741 744 747 749 751 753 754 756 758 759 762 762 763 765 768 771 773 775 777 779 781 783 786 787 788 789 790 791 791 792 794 795 797 798 798 799 799 800 802 803 805 806 807 809 811 813 815 817 819
672 677 677 676 678 681 682 683 685 687 689 691 693 697 700 702 705 708 711 713 715 717 720 725 728 726 722 721 722 723 723 725 727 729 732 736 739 742 745 747 749 751 753 755 756 758 760 761 762 764 767 769 771 773 776 778 780 782 785 786 787 788 789 790 790 791 793 795 797 798 798 799 800 800 801 803 804 805 805 807 808 810 812 815 817
669 672 675 675 677 679 680 681 683 685 687 688 691 694 698 701 703 707 709 709 712 718 723 726 725 721 719 720 721 721 722 723 725 728 730 733 736 740 743 745 747 749 751 753 754 756 758 759 760 763 765 768 770 772 775 777 779 781 784 785 786 787 788 789 790 791 792 794 796 797 798 799 800 801 801 802 803 803 804 805 806 808 810 812 814
665 667 670 672 674 676 679 680 682 684 685 687 689 692 696 699 702 706 707 706 711 719 723 723 720 718 718 719 720 720 721 721 723 726 728 731 734 737 741 743 745 747 749 751 753 754 755 757 758 760 763 766 769 771 773 776 779 781 782 783 785 786 787 788 789 790 792 794 795 796 798 799 800 801 801 801 802 802 803 804 804 805 807 809 812
664 665 667 669 672 675 677 679 681 682 684 686 688 692 696 698 700 703 705 706 712 720 720 716 715 715 717 718 719 719 719 720 722 724 726 729 732 735 738 741 743 745 747 749 750 752 753 754 755 758 761 765 767 769 772 775 777 779 781 781 782 784 785 787 789 790 792 793 795 796 797 798 799 800 800 800 801 802 802 803 803 804 805 807 810
663 664 666 668 671 674 677 679 680 681 683 685 688 692 695 697 699 702 703 704 710 716 715 712 712 714 715 716 717 718 718 718 720 722 724 727 730 733 736 739 741 743 745 747 748 749 750 752 753 756 759 763 766 768 770 773 776 777 779 779 780 781 783 785 788 790 792 793 794 796 797 798 799 799 799 800 800 801 802 802 803 803 804 806 809
662 663 665 668 670 673 676 678 679 681 683 685 688 691 693 696 699 702 702 704 708 711 710 709 710 712 712 714 715 715 715 716 718 720 722 725 728 731 734 737 739 741 742 744 746 747 748 750 752 754 757 761 764 766 769 772 774 775 777 778 778 780 782 784 787 790 792 793 794 796 797 798 799 799 799 800 800 801 801 802 803 804 805 806 808
661 663 666 668 671 673 675 677 678 680 682 685 687 690 692 695 698 701 705 708 708 707 706 707 708 709 710 711 712 712 712 713 715 717 720 723 726 729 732 735 737 738 740 741 743 745 746 748 751 754 757 760 762 765 768 770 772 774 776 777 778 779 781 783 786 789 791 793 794 795 796 797 797 798 799 800 800 801 801 802 803 804 805 807 808
661 663 667 669 670 671 674 676 678 680 682 684 687 689 691 694 696 701 708 710 706 703 704 705 705 707 708 709 712 713 712 711 713 715 717 721 724 727 731 732 734 736 738 739 741 743 744 747 750 753 756 759 762 764 767 770 772 773 775 776 777 778 780 782 785 787 790 791 792 794 795 795 796 797 798 799 800 801 801 802 803 804 805 807 809
661 663 669 673 670 669 672 675 677 679 681 683 686 688 690 692 694 699 706 708 703 701 702 703 703 704 706 711 717 720 716 712 712 714 716 719 722 725 728 730 731 734 735 737 739 741 743 747 750 753 756 759 761 764 766 769 771 773 775 776 776 778 779 781 783 786 788 789 790 792 793 794 795 797 798 799 800 800 801 802 804 805 806 808 810
661 664 671 676 673 670 670 673 675 677 680 682 684 685 687 690 693 697 701 702 701 700 701 700 701 703 705 710 718 722 719 714 712 713 715 717 720 723 725 727 729 732 733 735 738 740 744 747 750 752 755 757 760 762 765 768 770 773 774 775 776 777 779 780 782 784 786 787 788 790 791 793 795 797 798 799 799 800 801 802 804 805 807 808 810
663 665 669 674 675 670 669 671 673 675 678 680 682 685 687 690 694 696 697 697 698 698 698 698 698 700 703 707 713 719 720 716 713 712 713 715 718 720 722 724 727 729 731 733 737 740 744 747 749 751 754 756 759 762 765 767 770 772 773 774 775 776 778 779 780 782 784 785 787 788 790 792 794 796 798 798 799 800 801 802 804 805 807 808 810
665 667 668 672 675 673 669 670 671 673 675 677 680 683 686 689 691 691 690 691 693 694 694 692 692 696 699 703 709 717 720 716 711 710 711 712 714 717 719 722 724 726 729 732 735 739 742 745 748 751 754 756 759 762 765 767 769 770 772 773 774 775 776 777 779 781 782 784 786 788 790 792 794 795 797 798 799 800 802 803 804 805 807 808 809
665 668 669 671 675 673 670 669 670 671 672 674 677 679 682 684 685 685 685 686 688 689 689 687 687 691 696 701 709 715 715 711 708 708 709 710 712 713 715 718 721 723 726 729 733 737 740 743 746 749 752 754 758 761 763 766 767 769 771 771 772 773 775 776 777 779 780 782 784 787 789 791 793 794 796 797 799 800 801 803 804 805 805 806 807
665 666 666 668 671 671 669 669 669 669 670 672 674 676 678 679 681 681 682 683 685 687 687 685 686 690 696 701 706 709 708 706 706 706 708 710 710 710 712 715 717 720 724 727 730 734 737 740 743 745 748 752 755 758 761 763 765 767 768 769 770 772 773 774 776 778 779 781 783 786 788 790 792 793 795 796 797 799 800 802 803 803 803 804 805
668 666 664 665 667 668 667 667 667 667 669 670 671 673 675 677 678 679 680 681 683 684 686 686 688 691 695 699 702 702 702 703 703 704 706 708 708 708 710 713 716 718 721 725 729 732 734 738 742 744 747 750 753 756 758 761 763 765 766 767 768 770 771 772 774 777 778 780 782 785 787 789 791 792 793 795 796 797 799 800 801 802 802 803 804
668 667 665 665 666 665 663 663 664 664 665 667 669 671 673 675 677 678 679 680 681 682 684 686 687 690 692 694 695 696 697 698 700 702 704 705 706 707 709 711 713 716 719 722 727 730 733 735 739 743 746 748 751 754 756 758 760 762 763 764 766 767 768 770 772 775 777 778 781 784 786 788 789 791 792 794 795 796 797 798 799 799 801 802 803
667 667 665 666 670 670 666 662 660 661 663 664 666 668 670 672 675 677 678 679 680 681 683 684 685 687 688 690 691 692 693 695 697 700 702 703 704 706 708 709 711 714 717 720 724 728 731 733 736 740 743 746 749 751 754 756 757 759 760 761 762 764 766 768 771 773 775 777 779 782 784 786 787 789 791 792 793 794 796 797 797 797 799 801 801
666 668 668 669 673 675 671 665 659 658 660 663 664 666 669 671 673 675 677 679 680 681 682 683 684 685 686 687 689 690 691 693 695 698 700 701 703 705 707 710 712 714 716 718 722 726 728 731 734 737 739 743 746 749 751 753 754 756 758 759 760 762 764 767 769 771 773 775 778 780 782 784 785 787 788 789 791 792 794 795 796 796 797 798 799
671 672 672 671 670 669 669 668 665 662 661 662 663 665 668 670 672 673 675 676 677 679 680 681 682 683 684 685 687 688 690 691 693 696 698 700 702 705 707 709 711 714 716 718 720 723 725 727 730 733 736 739 743 745 747 750 751 753 754 755 757 760 762 765 768 770 771 773 776 778 780 782 783 785 786 787 788 790 792 793 794 795 796 796 797
673 673 672 670 668 666 665 667 668 667 664 663 664 665 668 670 671 672 673 675 675 676 677 678 680 681 682 683 685 686 688 690 691 693 696 697 699 702 703 704 707 710 712 715 718 720 722 724 727 730 733 736 739 742 744 747 749 750 751 753 755 758 760 763 766 768 770 772 774 776 778 780 781 783 784 785 787 789 790 791 793 794 794 794 796
672 671 670 669 668 667 665 665 666 666 665 664 664 666 667 669 669 670 671 673 674 674 675 676 678 679 680 682 683 684 687 689 690 692 694 696 697 698 699 700 702 705 708 712 715 717 719 722 724 727 730 733 736 739 742 744 745 747 748 750 753 755 758 761 763 765 768 770 772 774 776 778 779 781 782 784 786 787 789 790 792 792 792 793 795
673 672 671 670 668 668 667 666 665 664 663 663 664 666 666 667 668 668 669 670 671 672 673 674 676 677 678 679 681 683 685 687 689 691 692 694 695 696 697 698 699 702 705 709 712 714 717 719 722 724 727 730 733 736 739 741 742 743 745 748 751 753 756 759 761 763 765 767 769 772 774 776 778 779 781 782 784 786 788 789 790 791 791 792 794
674 672 671 670 668 667 667 666 665 664 663 663 664 665 666 666 666 667 667 667 668 669 671 672 673 674 676 677 679 681 682 684 685 687 689 691 693 694 695 697 698 700 703 706 708 710 714 717 719 722 725 728 731 733 735 737 739 741 743 746 749 752 754 756 758 760 763 765 767 769 772 774 776 778 780 781 783 785 786 788 789 790 791 792 794
675 673 671 670 669 668 667 666 665 665 664 664 664 664 665 665 665 665 666 666 667 668 670 671 671 672 673 674 675 676 677 679 680 682 684 687 689 691 693 695 696 699 702 704 705 708 711 713 716 719 723 726 728 730 732 734 736 739 741 744 746 749 751 753 755 758 760 763 765 767 770 772 774 776 779 780 782 784 785 786 787 789 790 791 793
677 675 673 671 670 669 668 668 666 665 664 664 665 665 664 664 664 665 665 666 668 669 670 670 671 671 671 671 673 674 675 675 677 678 680 682 685 688 691 693 696 698 699 701 703 705 707 709 713 717 720 724 726 728 730 733 735 737 740 742 744 747 749 752 754 756 758 761 763 766 768 771 773 775 777 779 781 782 784 785 787 788 790 791 793
680 678 676 673 672 671 669 669 668 666 665 664 664 665 666 665 665 666 666 666 668 669 669 670 670 670 670 672 674 677 677 676 677 678 680 682 685 687 690 693 696 698 700 702 704 706 707 708 710 714 718 721 724 726 729 731 733 735 738 740 742 745 747 750 752 754 757 759 761 764 766 769 771 773 775 777 779 781 782 784 786 787 789 791 792
683 681 679 676 674 672 671 670 669 668 666 665 664 666 667 667 667 668 669 668 666 666 667 667 667 668 669 672 674 677 678 679 680 681 681 683 684 686 689 692 695 698 702 705 707 710 711 710 710 713 717 720 722 725 727 729 731 733 735 738 740 743 746 748 750 753 755 757 760 762 765 767 769 771 773 776 777 779 781 783 785 787 788 790 791
686 684 682 679 677 675 673 672 670 669 668 666 665 666 668 670 670 670 671 671 669 665 664 665 666 667 668 669 670 672 676 680 683 684 685 686 686 688 690 692 695 698 702 705 707 710 710 709 710 713 716 719 721 724 726 728 730 732 734 737 739 742 744 746 748 750 752 755 757 760 763 765 767 769 772 774 776 778 780 782 784 785 786 788 789
688 686 685 682 680 678 677 675 673 671 670 669 668 668 669 671 672 672 673 675 674 671 668 667 669 669 669 669 669 671 674 677 680 683 686 688 689 690 692 694 696 699 702 705 708 709 709 708 710 712 715 718 721 724 726 728 730 732 734 736 738 740 742 743 745 748 750 753 755 757 760 763 765 768 770 773 774 776 778 780 782 783 785 786 788
691 690 688 686 684 682 680 679 677 676 674 673 673 672 672 673 675 676 678 679 677 674 670 669 670 672 672 672 672 672 674 676 678 681 685 688 690 691 693 696 698 701 703 705 707 708 708 709 711 713 715 719 722 724 726 728 730 732 734 736 737 739 741 742 744 747 749 752 754 756 759 761 764 766 769 771 773 775 777 779 780 782 783 784 786
695 694 692 690 688 686 684 683 682 681 680 679 677 675 674 676 679 683 684 682 678 674 671 670 671 673 674 676 676 675 675 677 679 681 685 689 690 692 694 696 699 703 706 707 708 708 708 710 713 715 717 720 722 724 726 728 730 732 734 735 737 739 740 741 744 746 748 751 753 755 758 760 763 765 768 769 771 773 775 777 778 780 782 783 784
702 700 697 695 693 691 689 688 687 686 684 682 680 679 679 680 684 687 688 684 679 675 674 673 674 675 677 679 681 681 681 681 682 683 686 688 691 693 695 697 700 704 706 708 708 708 710 712 715 716 718 721 723 725 727 729 731 732 734 735 736 738 739 741 743 746 748 751 753 755 757 760 762 764 766 768 770 772 773 775 777 779 780 782 783
707 705 702 700 697 695 693 692 691 690 689 688 687 686 685 685 686 689 690 689 684 680 678 677 678 680 681 683 685 686 686 687 687 687 689 690 692 694 696 698 701 704 706 708 709 709 711 714 716 717 719 721 723 725 727 729 731 733 734 735 736 737 739 741 743 745 748 750 752 755 757 759 761 763 765 767 769 770 772 773 775 777 779 780 781
711 709 707 704 702 701 699 698 698 698 698 697 695 691 689 688 689 691 694 694 692 688 685 684 684 685 686 687 688 689 690 691 691 692 693 694 695 697 698 700 703 705 707 708 710 711 713 716 717 719 720 722 724 726 728 729 731 732 734 735 736 738 740 741 743 745 747 750 752 755 757 759 761 763 764 766 768 769 770 772 774 776 777 779 780
715 713 711 708 706 705 704 703 703 703 703 702 699 696 693 692 692 694 698 700 699 697 694 692 690 690 691 692 692 692 692 693 694 695 696 698 701 702 702 704 706 707 708 709 711 713 716 718 719 720 722 723 724 726 728 729 730 732 733 735 737 738 740 742 744 746 748 750 752 755 757 758 760 762 763 765 767 768 769 771 773 774 776 778 779